Location: ??????? ????????????
(38.2849°N, 22.7702°E)
Time: 00:11:42
(UTC+00:00)

Daily predictions for brighter satellites

Satellite Brightness Start Highest point End
(mag) Time Altitude Azimuth Time Altitude Azimuth Time Altitude Azimuth
Helios 1A Rocket 4.2 00:09:25 33° NNW 00:09:25 33° NNW 00:11:38 10° NNW
Cosmos 1302 Rocket 3.9 00:08:14 81° NNW 00:08:14 81° NNW 00:13:19 10° NNE
ADEOS II 3.3 00:06:07 10° NE 00:10:48 32° E 00:11:51 29° ESE
H-2A R/B 4.3 00:08:36 10° NNE 00:11:50 44° ENE 00:11:50 44° ENE
Resurs 1-4 Rocket 2.4 00:07:34 10° NNE 00:12:48 55° E 00:13:22 53° SE
Cosmos 968 Rocket 3.5 00:08:45 10° NNW 00:13:29 68° WNW 00:13:29 68° WNW
Cosmos 2344 3.5 00:13:34 50° SW 00:15:44 75° NW 00:23:00 10° NNE
IDEFIX/ARIANE 42P 2.4 00:10:47 10° NNE 00:15:58 85° ESE 00:16:09 82° SSE
Cosmos 1697 Rocket 3.5 00:24:42 36° SE 00:25:53 41° ESE 00:31:07 10° NE
Cosmos 2227 Rocket 4.4 00:21:51 10° N 00:26:17 23° NE 00:30:42 10° ESE
CENTAUR R/B 3.4 00:18:44 10° NW 00:27:14 59° WSW 00:30:38 40° S
Atlas Centaur 2 4.3 00:27:44 21° SSE 00:27:44 21° SSE 00:33:06 10° ESE
Meteor 1-5 Rocket 4.0 00:27:46 70° S 00:28:25 89° E 00:33:48 10° N
Cosmos 1743 3.4 00:33:06 47° NE 00:33:06 47° NE 00:36:04 10° NNE
Tsikada Rocket 4.4 00:29:29 10° NNW 00:35:19 43° W 00:35:46 43° WSW
Cosmos 967 Rocket 4.5 00:32:27 10° NNW 00:38:51 82° ENE 00:43:40 18° SSE
Cosmos 1992 Rocket 3.8 00:40:00 68° SSW 00:40:40 85° WNW 00:45:54 10° NNE
Cosmos 2297 Rocket 2.7 00:36:30 10° NNW 00:42:06 59° ENE 00:46:53 14° SE
Meteor 2-4 Rocket 3.5 00:42:17 10° N 00:47:43 85° W 00:49:15 49° S
CZ-2C R/B 2.7 00:43:24 10° N 00:48:08 71° WNW 00:48:40 64° WSW
COSMOS 2441 4.3 00:50:28 10° N 00:55:21 73° WNW 00:56:15 57° SW
Cosmos 1656 4.4 00:57:49 33° W 00:59:04 38° WNW 01:04:12 10° N
OAO 1 Rocket 4.5 00:58:43 53° SSW 00:59:22 57° S 01:04:36 10° E
Cosmos 1980 Rocket 3.4 00:56:43 22° SSE 00:59:37 36° ESE 01:04:45 10° NE
CZ-2C R/B 3.0 01:05:56 42° SW 01:06:55 46° W 01:12:18 10° NNW
NOSS 3-2 (A) 4.4 00:59:34 10° NW 01:07:06 48° WSW 01:12:56 21° S
Cosmos 1766 Rocket 3.5 01:07:18 58° SW 01:08:00 71° W 01:12:25 10° N
USA 32 3.9 01:03:49 10° N 01:09:03 73° W 01:10:53 40° SSW
DELTA 2 R/B (1) 3.6 01:07:00 22° W 01:10:44 78° N 01:16:19 10° E
Cosmos 1626 3.8 01:08:59 10° NNW 01:10:11 19° NW 01:10:11 19° NW
Meteor 1-18 Rocket 4.3 01:11:01 10° NNW 01:16:33 59° W 01:18:54 34° SSW
ATLAS 5 CENTAUR R/B 4.0 01:12:11 10° NNW 01:16:43 32° NE 01:22:07 10° ESE
SJ 16-02 3.2 01:13:32 10° NW 01:15:14 17° WNW 01:15:14 17° WNW
Cosmos 1400 Rocket 4.4 01:14:33 10° NNE 01:18:06 32° ENE 01:21:39 10° SE
SL-24 R/B 4.4 01:14:38 10° N 01:18:42 49° WNW 01:19:35 42° WSW
Cosmos 1726 2.4 01:19:31 39° NW 01:19:31 39° NW 01:21:48 10° N
Cosmos 1674 2.5 01:16:13 10° N 01:19:34 71° E 01:20:24 47° SSE
Meteor 1-28 Rocket 2.9 01:20:09 55° S 01:20:53 83° WSW 01:24:30 10° NNW
CZ-2D R/B 2.9 01:17:14 10° N 01:21:56 35° WNW 01:23:30 29° WSW
ALOS 2.2 01:21:56 10° N 01:26:33 75° WNW 01:28:24 36° SSW
Tiangong -1.1 01:28:35 26° NW 01:29:54 44° N 01:32:54 10° ENE
Cosmos 1328 Rocket 3.7 01:26:13 10° NNW 01:30:32 53° W 01:31:56 37° SSW
AQUA 4.1 01:26:31 10° N 01:31:06 51° WNW 01:32:50 33° SW
NOSS 3-4 (C) 3.4 01:28:33 31° WSW 01:31:06 59° NW 01:36:54 10° NNE
NOSS 3-4 (A) 3.4 01:29:02 31° WSW 01:31:31 57° NW 01:37:14 10° NNE
Cosmos 1536 2.8 01:30:24 33° S 01:32:05 81° E 01:36:03 10° N
Cosmos 371 Rocket 3.2 01:28:42 10° NNW 01:33:35 88° WSW 01:38:25 10° SSE
Cosmos 2219 4.3 01:32:30 10° N 01:37:57 45° ENE 01:43:24 10° SE
ATLAS CENTAUR Rocket 4.0 01:10:10 10° W 01:38:25 47° SSW 01:44:05 10° ESE
Cosmos 1500 Rocket 4.2 01:35:11 15° SSE 01:38:34 51° E 01:42:49 10° NNE
SAR-Lupe-1 4.1 01:35:40 10° NNE 01:39:15 73° ESE 01:40:56 29° S
FENGYUN 3A 4.5 01:35:36 10° N 01:40:29 36° WNW 01:42:53 24° WSW
Lacrosse 5 2.1 01:36:22 10° NW 01:41:10 45° SW 01:45:59 10° SSE
NOSS 3-2 (C) 4.3 01:33:31 10° NW 01:41:15 57° WSW 01:50:01 10° SSE
Cosmos 2034 Rocket 4.2 01:39:11 25° SSW 01:42:51 55° W 01:49:07 10° N
Cosmos 2195 Rocket 4.5 01:36:55 10° N 01:43:16 86° W 01:49:31 10° S
Cosmos 2369 4.0 01:39:42 18° S 01:43:52 64° ESE 01:49:31 10° NNE
SL-16 R/B 2.5 01:38:49 13° S 01:44:22 61° WSW 01:50:28 10° NNW
Nadezhda 4 Rocket 4.2 01:39:03 10° NNW 01:44:57 51° W 01:49:07 19° SSW
Cosmos 1733 3.0 01:44:08 26° S 01:45:59 76° E 01:49:30 10° N
Cosmos 1867 3.5 01:40:36 10° NW 01:45:59 61° WSW 01:51:20 10° SSE
Meteor 2-10 4.1 01:43:41 15° S 01:47:57 73° E 01:52:59 10° NNE
ASTRO E2 4.1 01:48:02 18° SSE 01:48:03 18° SSE 01:50:25 10° ESE
Cosmos 1340 3.1 01:48:42 32° WSW 01:49:19 35° WNW 01:52:25 10° N
ADEOS II 3.2 01:45:48 10° N 01:50:16 29° WNW 01:52:42 20° WSW
Resurs 1-4 Rocket 3.8 01:48:33 10° NNW 01:52:06 18° WNW 01:54:25 14° W
RESURS DK-1 3.6 01:49:36 13° S 01:52:50 35° ESE 01:56:34 10° NE
CZ-4 R/B 4.1 01:48:41 10° NNE 01:53:37 71° ESE 01:58:03 12° S
KORONAS-FOTON 3.9 01:52:15 10° NNW 01:55:44 48° W 01:57:33 24° SSW
Meteor 1-4 Rocket 4.3 01:56:52 10° NNE 01:59:18 24° ENE 02:01:42 10° SE
Cosmos 1503 Rocket 3.9 01:54:22 10° NNW 01:59:33 89° W 02:04:44 10° SSE
SAR-Lupe-4 3.9 01:56:35 10° N 02:00:01 48° WNW 02:01:48 24° SW
UNK 3.7 01:56:29 11° S 02:00:49 58° W 02:05:19 10° NNW
Cosmos 2263 Rocket 3.1 01:56:20 10° NNW 02:01:50 53° ENE 02:07:19 10° SE
H-2A R/B 3.8 01:57:41 10° NE 02:01:53 28° E 02:06:02 10° SSE
Meteor 2-9 Rocket 4.3 01:57:09 11° S 02:02:45 90° WNW 02:08:28 10° N
Cosmos 1805 Rocket 3.6 02:00:02 12° S 02:04:06 86° E 02:08:34 10° N
Cosmos 2026 Rocket 4.0 02:02:25 10° NNW 02:08:39 65° W 02:14:55 10° S
Cosmos 1805 3.4 02:05:07 10° S 02:08:45 65° E 02:12:24 10° NNE
Cosmos 1697 Rocket 3.9 02:06:26 15° WSW 02:09:56 27° WNW 02:14:40 10° N
Cosmos 2227 Rocket 2.4 02:05:09 10° NNW 02:10:34 49° WSW 02:15:57 10° S
Cosmos 1356 Rocket 3.4 02:09:16 10° N 02:13:11 75° E 02:17:05 10° SSE
Atlas Centaur 2 3.6 02:09:56 16° SW 02:15:59 39° SSE 02:22:49 10° ESE
Cosmos 1408 Rocket 4.2 02:15:15 16° SW 02:18:18 38° WNW 02:22:22 10° N
CZ-2C R/B 2.4 02:14:58 10° N 02:19:55 78° WNW 02:25:00 10° SSW
Cosmos 1634 Rocket 4.2 02:14:49 11° SSW 02:20:35 53° W 02:26:37 10° N
CZ-3C R/B 4.4 02:12:24 10° SSW 02:21:05 30° SE 10:01:04 10° SE
METEOR-M 4.5 02:16:35 10° N 02:21:43 50° WNW 02:26:40 11° SW
Cosmos 2297 Rocket 3.6 02:22:01 10° WNW 02:25:34 17° W 02:28:32 12° SW
SL-14 R/B 4.0 02:21:52 10° N 02:25:47 55° E 02:29:38 10° SSE
Envisat 3.7 02:23:32 10° N 02:28:13 38° WNW 02:32:45 10° SW
BREEZE-M DEB (TANK) 2.8 02:25:56 14° SW 02:28:25 51° SE 02:31:37 10° ENE
Cosmos 2082 3.8 02:26:28 10° NNW 02:32:10 85° ENE 02:37:52 10° SSE
Cosmos 1092 Rocket 4.4 02:26:49 10° NNW 02:32:29 41° W 02:38:09 10° SSW
Cosmos 540 Rocket 3.5 02:28:04 10° SSW 02:33:12 84° ESE 02:38:22 10° NNE
Sich 1 3.6 02:30:29 10° SSW 02:34:30 39° W 02:38:32 10° N
PAYLOAD A 4.2 02:29:56 10° N 02:35:15 66° WNW 02:40:21 10° SSW
Cosmos 2279 Rocket 4.1 02:32:23 10° SSW 02:38:29 59° W 02:44:38 10° N
Cosmos 332 Rocket 3.8 02:34:42 10° NNW 02:39:23 56° WSW 02:44:01 10° S
Cosmos 1707 4.3 02:38:23 10° NW 02:40:39 16° W 02:42:55 10° SW
IRS-1D 3.5 02:38:07 10° N 02:43:00 63° WNW 02:47:52 10° SSW
Cosmos 990 Rocket 4.3 02:38:03 10° NNW 02:43:17 74° ENE 02:48:31 10° SSE
Cosmos 1980 Rocket 3.3 02:38:37 10° WSW 02:43:35 31° WNW 02:48:36 10° N
Cosmos 1315 Rocket 3.2 02:41:13 10° N 02:45:02 63° E 02:48:49 10° SSE
USA 238 DEB 4.5 02:40:37 10° NW 02:47:31 38° WSW 02:54:44 10° S
USA 238 4.5 02:40:43 10° NW 02:47:36 38° WSW 02:54:47 10° S
YAOGAN 6 3.4 02:45:39 10° NNW 02:48:24 27° WNW 02:51:09 10° SW
SL-16 R/B 2.6 02:43:50 10° S 02:49:26 68° ESE 02:55:05 10° NNE
Cosmos 2228 Rocket 3.2 02:46:49 10° N 02:51:12 80° E 02:55:35 10° S
GEOS 3 Rocket 3.7 02:48:17 10° NNE 02:53:23 70° NW 02:58:26 10° SW
DELTA 2 R/B (1) 3.6 02:51:39 10° WNW 02:57:12 69° SSW 03:02:42 10° ESE
